sat.trackr.live / text

‹ back to catalog

STARLINK-11578 [DTC]

NORAD 63014 · 2025-032K

PAYLOAD ACTIVE UNKNOWN

§ Identity

Operator
Country
US
Launch date
2025-02-15
Launch site
AFETR
Launch vehicle
Mass (kg)
RCS (m²)

Purposes: comms

External: N2YO · Heavens-Above · Gunter

§ Orbital elements

Epoch: 2026-05-25T03:18:19.726848Z

Period
91.67 min
Inclination
43.0031°
Eccentricity
0.0001584
Mean motion
15.70869654 rev/d
Perigee alt
355.3 km
Apogee alt
357.5 km
Semi-major
6,734.5 km
B*
1.3802e-3
RAAN
94.8433°
Arg perigee
235.9644°
Mean anomaly
124.1073°
Rev number
7,418

§ Raw data

STARLINK-11578 [DTC]1 63014U 25032K   26145.13772832  .00180779  00000+0  13802-2 0  99942 63014  43.0031  94.8433 0001584 235.9644 124.1073 15.70869654 74188

JSON: /api/v1/satellites/63014 · /tle

For live sub-satellite position, see the globe view (requires WebGL).

§ Visibility from observer

Set your observer location to see the next 7 days of passes ≥ 10°. The values pass through the URL so the page stays shareable.

No JS? Fill the form by hand. The geolocation button needs JavaScript.